809  
ASUS43 KFSD 241810  
RWRFSD  
 
WEATHER ROUNDUP FOR SE SOUTH DAKOTA/SW MINNESOTA/NW IOWA  
NATIONAL WEATHER SERVICE SIOUX FALLS SD  
100 PM CDT SUN JUN 24 2018  
 
NOTE: "FAIR" INDICATES FEW OR NO CLOUDS BELOW 12,000 FEET WITH NO  
SIGNIFICANT WEATHER AND OR S TO VISIBILITY
.  
 
 
SDZ038>040-050-052>070-241900-  
SOUTHEAST SOUTH DAKOTA  
 
CITY SKY/WX TMP DP RH WIND PRES REMARKS
 
BROOKINGS PTSUNNY 77 64 64 S10 29.88S  
CHAMBERLAIN PTSUNNY 74 68 80 SW3 29.88S  
6HR MIN TEMP: 62; 6HR MAX TEMP: 75;  
 
HURON PTSUNNY 75 66 73 VRB5 29.86R  
6HR MIN TEMP: 63; 6HR MAX TEMP: 75;  
 
MADISON MOCLDY 73 72 94 S7 29.89R  
MITCHELL CLOUDY 76 63 64 SW5 29.87R  
6HR MIN TEMP: 63; 6HR MAX TEMP: 77;  
 
SIOUX FALLS PTSUNNY 78 64 61 CALM 29.86S  
6HR MIN TEMP: 67; 6HR MAX TEMP: 79;  
 
WINNER FAIR 76 62 62 VRB3 29.89S  
YANKTON PTSUNNY 77 67 71 NW7 29.87S  

 
 
MNZ071-072-080-081-089-090-097-098-241900-  
SOUTHWEST MINNESOTA  
 
CITY SKY/WX TMP DP RH WIND PRES REMARKS
 
FAIRMONT CLOUDY 79 67 66 S12 29.92S  
JACKSON CLOUDY 77 64 65 SE12 29.91S  
LUVERNE MOSUNNY 77 64 65 E7 29.88S  
MARSHALL CLOUDY 75 66 73 SE18 29.88S  
MONTEVIDEO PTSUNNY 75 66 73 S10 29.89S  
PIPESTONE TSTM 75 68 78 SE8 29.88F  
REDWOOD FALLS CLOUDY 73 66 78 E12 29.90R  
WINDOM HVY RAIN 73 72 94 S15 29.91R  
WORTHINGTON CLOUDY 77 68 73 E12 29.89F  

 
 
IAZ001>003-012>014-020>022-031-032-NEZ013-014-SDZ071-241900-  
NORTHWEST IOWA  
 
CITY SKY/WX TMP DP RH WIND PRES REMARKS
 
CHEROKEE CLOUDY 81 67 61 SE5 29.86F  
DENISON MOSUNNY 82 72 69 S9 29.89R  
ESTHERVILLE PTSUNNY 78 68 71 SE17 29.90R  
ORANGE CITY CLOUDY 82 66 57 SE6 29.86S  
SHELDON MOSUNNY 81 70 69 SE8 29.85F  
SIOUX CITY MOSUNNY 82 70 66 VRB7 29.85R  
6HR MIN TEMP: 65; 6HR MAX TEMP: 82;  
 
SPENCER CLOUDY 83 69 62 E14 29.88F  
6HR MIN TEMP: 67; 6HR MAX TEMP: 83;  
 
STORM LAKE N/A 79 66 65 E8 29.88F  

 
 
ABBREVIATIONS USED IN REMARKS  
TC - TEMPERATURE IN CELSIUS  
WCI - WIND CHILL INDEX  
HX - HEAT INDEX  
VSB - VISIBILITY  
 
 
 
CLICK HERE TO GO TO PREVIOUS BULLETINS.

The Nexlab SD Page
The Nexlab IA Page
The Nexlab MN Page
The Nexlab NE Page Main Text Page